Location: Aghbalou n�Serdan
(32.6780°N, 5.2975°W)
Time: 06:24:56
(UTC+00:00)

Daily predictions for brighter satellites

Satellite Brightness Start Highest point End
(mag) Time Altitude Azimuth Time Altitude Azimuth Time Altitude Azimuth
CZ-3B R/B 4.3 18:48:30 10° SW 18:53:23 75° NW 19:18:36 10° NE
Cosmos 2369 Rocket 2.5 19:03:18 10° N 19:08:47 48° ENE 19:14:11 10° SE
FALCON 9 R/B 3.9 19:03:34 10° W 19:09:41 64° S 19:43:07 13° ESE
STARLINK-1098 3.7 19:05:52 10° NW 19:10:01 81° SW 19:14:08 10° SE
Cosmos 1709 Rocket 4.0 19:04:56 10° N 19:11:05 89° ENE 19:17:12 10° S
Cosmos 1606 Rocket 4.4 19:07:48 10° SSE 19:11:37 29° E 19:15:28 10° NNE
STARLINK-1123 3.9 19:10:51 10° NW 19:14:58 72° SW 19:19:04 10° SE
Cosmos 614 Rocket 4.2 19:11:41 10° S 19:16:40 47° ESE 19:21:39 10° NNE
Cosmos 1908 4.2 19:16:28 10° SSE 19:19:39 25° E 19:22:51 10° NE
STARLINK-1097 4.0 19:15:51 10° NW 19:19:57 64° SW 19:24:01 10° SSE
CSL-04 Rocket 3.7 19:17:28 10° SSE 19:22:45 85° WSW 19:28:03 10° NNW
STARLINK-1099 4.2 19:20:52 10° NW 19:24:54 56° SW 19:28:57 10° SSE
Cosmos 1726 2.0 19:21:31 10° S 19:25:13 72° E 19:28:56 10° N
Cosmos 1943 4.0 19:21:41 10° SW 19:27:13 57° WNW 19:32:49 10° NNE
Cosmos 2074 Rocket 4.3 19:22:39 10° N 19:28:38 45° E 19:34:36 10° SSE
STARLINK-1104 4.4 19:25:52 10° NW 19:29:51 49° SW 19:33:51 10° SSE
Meteor 2-10 4.1 19:24:48 10° S 19:30:11 83° E 19:35:49 10° N
ATLAS CENTAUR Rocket 4.2 19:25:35 10° W 19:31:42 72° S 20:04:07 16° ESE
ATLAS CENTAUR Rocket 4.2 19:25:35 10° W 19:31:42 72° S 20:04:06 16° ESE
IRIDIUM 114 4.4 19:27:23 10° N 19:32:30 54° E 19:37:34 10° SSE
STARLINK-29 4.4 19:30:13 10° WSW 19:33:13 38° NW 19:36:14 10° NNE
ARGOS Delta rocket 4.1 19:28:29 10° SSE 19:33:39 65° ENE 19:39:02 10° N
Cosmos 1939 Rocket 4.4 19:30:45 10° SSW 19:34:24 37° W 19:38:02 10° NNW
CZ-4 R/B 3.5 19:31:07 10° SSW 19:34:26 28° W 19:37:46 10° NW
Cosmos 2263 4.3 19:30:23 10° NNW 19:35:54 59° ENE 19:41:25 10° SSE
Cosmos 1656 Rocket 4.3 19:31:16 10° N 19:36:28 37° ENE 19:40:46 14° SE
SL-8 R/B 3.9 19:32:18 10° NW 19:37:00 57° NE 19:40:35 17° ESE
Cosmos 1953 3.4 19:35:42 10° SSW 19:39:31 47° W 19:43:22 10° N
IRIDIUM 103 4.3 19:36:29 10° N 19:41:41 68° E 19:46:51 10° S
Cosmos 407 Rocket 3.4 19:38:10 10° S 19:43:17 72° ESE 19:48:24 10° NNE
ARGOS 3.5 19:40:23 10° SE 19:45:29 45° ENE 19:50:35 10° N
CZ-2C R/B 3.5 19:42:57 10° NE 19:47:10 25° E 19:50:36 13° SE
IRS-1A Rocket 4.3 19:44:16 10° SSE 19:49:52 67° ENE 19:55:38 10° N
Cosmos 1992 Rocket 4.4 19:45:58 10° NNW 19:51:07 65° WSW 19:56:14 10° S
MONITOR-E 4.2 19:52:42 38° E 19:53:00 40° ENE 19:55:30 10° N
GEOS 3 Rocket 3.7 19:51:39 19° SE 19:55:18 60° NE 20:00:25 10° NNW
SPOT 3 Rocket 4.4 19:53:38 22° ESE 19:55:58 31° ENE 20:00:29 10° N
ISS -1.9 19:56:44 10° WNW 19:59:36 26° SW 20:01:55 13° S
IRIDIUM 106 4.4 19:54:43 10° N 19:59:57 79° W 20:05:08 10° S
SEDSat Delta rocket 3.8 19:56:34 10° W 20:01:40 47° SSW 20:03:59 26° SE
CZ-2C R/B 3.7 19:58:37 10° NNE 20:03:13 59° E 20:07:42 10° S
SL-08 RB Rocket 3.9 20:02:48 26° SE 20:05:00 48° ENE 20:09:25 10° N
Cosmos 1023 Rocket 4.4 20:00:12 10° SSW 20:05:23 87° ESE 20:10:34 10° NNE
Cosmos 1954 Rocket 4.0 20:02:53 10° S 20:08:00 55° ESE 20:13:05 10° NNE
COSMOS 2455 4.1 20:03:16 10° N 20:08:02 24° NE 20:09:32 21° ENE
Cosmos 1437 3.8 20:06:55 10° NNW 20:09:47 42° W 20:12:14 13° SSW
Cosmos 2058 Rocket 3.0 20:09:15 10° S 20:13:45 80° E 20:18:16 10° N
MOS 1 Rocket 3.7 20:11:16 10° NNE 20:16:35 54° E 20:21:29 12° S
BREEZE M DEB (TANK) 3.1 20:15:04 10° WSW 20:17:31 45° NNW 20:22:43 10° NE
FREGAT/IRIS 3.3 20:17:37 37° SW 20:18:13 45° W 20:20:50 10° NNW
Cosmos 1726 Rocket 4.4 20:14:44 10° SSW 20:19:00 51° W 20:23:19 10° N
ATLAS 5 CENTAUR R/B 3.3 20:15:55 10° WSW 20:19:32 31° NW 20:23:26 10° N
NOSS 3-4 (A) 4.1 20:14:39 10° NNW 20:21:46 57° ENE 20:25:16 33° ESE
NOSS 3-4 (C) 4.1 20:14:46 10° NNW 20:21:52 56° ENE 20:25:20 33° ESE
SJ-6B 2.9 20:20:32 31° S 20:22:28 84° W 20:26:36 10° NNW
Cosmos 2341 Rocket 4.3 20:21:37 10° N 20:27:42 45° E 20:29:06 39° ESE
GPS 2-04 Rocket1 2.9 20:24:05 10° SW 20:27:42 53° S 20:27:42 53° S
OE (NEXTSAT) 4.5 20:27:07 10° WSW 20:30:18 70° W 20:30:18 70° W
Resurs 01 Rocket 2.6 20:31:53 32° NE 20:31:53 32° NE 20:34:58 10° N
H-2A R/B 2.9 20:26:09 10° S 20:31:13 50° W 20:36:11 10° NNW
Cosmos 1300 3.4 20:35:17 41° NNE 20:35:17 41° NNE 20:37:54 10° N
USA 186 3.7 20:33:15 19° SW 20:34:59 29° W 20:37:53 10° NW
Cosmos 921 Rocket 3.6 20:30:57 10° N 20:34:07 40° NE 20:34:07 40° NE
Cosmos 1461 3.5 20:33:59 10° NNW 20:38:10 48° NE 20:38:10 48° NE
CZ-2C R/B 4.0 20:35:57 10° S 20:40:34 42° W 20:45:06 10° NNW
OAO 1 4.4 20:39:36 10° WSW 20:45:09 87° NNW 20:46:09 61° ENE
Hubble Space Telescope 2.0 20:43:16 10° WSW 20:45:53 33° SW 20:45:53 33° SW
USA 234 3.1 20:41:22 10° NE 20:47:56 83° SE 20:54:29 10° SW
Cosmos 2181 Rocket 3.9 20:46:48 47° SSE 20:48:37 70° E 20:54:47 10° NNE
BREEZE-M DEB (TANK) 4.3 20:44:42 10° WSW 20:51:24 49° NW 20:52:07 42° N
Cosmos 962 Rocket 4.3 20:45:34 10° N 20:51:42 81° E 20:53:00 58° SSE
ATLAS 2AS CENTAUR R/B 2.7 20:46:38 10° NNW 20:54:00 84° WSW 20:55:53 52° SSE
SL-8 Rocket 4.1 20:48:32 10° N 20:54:31 54° ENE 20:54:31 54° ENE
Cosmos 2366 rocket 4.4 21:02:12 10° N 21:06:59 47° NE 21:06:59 47° NE
CZ-2C R/B 4.2 21:22:53 10° N 21:27:23 31° WNW 21:31:56 10° SW
COSMOS 2455 3.9 21:48:24 10° NW 21:52:43 40° WNW 21:52:43 40° WNW
CZ-4C R/B 4.5 22:10:08 10° N 22:14:28 25° NNE 22:14:28 25° NNE
